Location: Unspecified
(50.7693°N, 0.0000°E)
Time: 10:30:29
(UTC+00:00)

A-11 Canister half - Pass Details

Date: 25 June 2019
Orbit: 1526 x 1683 km, 47.3° (Epoch: 15 July)

Event Time Altitude Azimuth Distance (km) Brightness Sun altitude
Rises 09:56:53 0° 287° (WNW) 4,688 11.2 53.4°
Reaches altitude 10° 10:00:16 10° 279° (W) 3,698 10.8 53.8°
Maximum altitude 10:08:17 35° 219° (SW) 2,296 10.4 54.8°
Drops below altitude 10° 10:16:23 10° 158° (SSE) 3,716 11.7 55.8°
Sets 10:19:48 0° 150° (SSE) 4,713 12.1 56.2°
